[[{"header":{"parameterUnit":"m.s-1","parameterCategory":1,"la1":30.2992,"la2":30.254,"lo1":-89.0895,"lo2":-89.0443,"dy":0.0025,"dx":0.0025,"nx":19,"ny":19,"refTime":"2026-03-10T03:00:00:Z","depth":0,"parameterNumber":2,"parameterNumberName":"U-component_of_WINDS"},"data":[0,0,0,-1.9372,-1.9374,-1.9421,-1.9421,-1.9484,-1.9485,0,0,0,0,0,0,0,0,0,0,0,-1.936,-1.9361,-1.9372,-1.9374,-1.942,-1.9421,-1.9484,-1.9485,0,0,0,0,0,0,0,0,0,0,0,-1.936,-1.9361,-1.9361,-1.9374,-1.942,-1.9421,-1.9484,-1.9448,0,0,0,0,0,0,0,0,0,0,-1.9401,-1.9392,-1.9361,-1.9361,-1.9374,-1.942,-1.9421,-1.9446,-1.945,-1.9465,0,-1.9478,0,-1.9482,-1.949,-1.949,0,0,0,-1.9372,-1.9388,-1.9399,-1.9361,-1.9375,-1.942,-1.9399,-1.9448,-1.9453,-1.947,-1.9479,-1.9481,-1.9484,-1.949,-1.949,-1.9578,-1.9579,0,0,-1.937,-1.937,-1.9396,-1.9402,-1.9395,-1.9398,-1.94,-1.9451,-1.946,-1.9479,-1.9482,-1.9485,-1.949,-1.9491,-1.9578,-1.9578,0,0,0,-1.9363,-1.9368,-1.9378,-1.94,-1.9408,-1.9399,-1.9402,-1.9458,-1.9461,-1.9483,-1.9485,-1.9491,-1.9492,-1.9577,-1.9578,-1.96,0,0,0,-1.9362,-1.9364,-1.9377,-1.9377,-1.9407,-1.9434,-1.9408,-1.9458,-1.9463,-1.9485,-1.9491,-1.9492,-1.9577,-1.9578,-1.9598,-1.961,0,0,0,-1.9357,-1.9363,-1.9371,-1.9377,-1.9397,-1.9433,-1.9439,-1.9459,-1.9465,-1.949,-1.9492,-1.9577,-1.9578,-1.9597,-1.9608,-1.9633,0,0,0,-1.9351,-1.939,-1.9371,-1.9416,-1.9397,-1.9446,-1.9438,-1.9475,-1.95,-1.9491,-1.9577,-1.9578,-1.9596,-1.9606,-1.9631,-1.9653,-1.9662,0,0,-1.94,-1.9396,-1.9422,-1.9407,-1.9459,-1.9439,-1.9495,-1.9518,-1.9521,-1.9559,-1.9561,-1.9599,-1.9608,-1.9632,-1.9716,-1.9724,0,0,0,-1.9438,-1.9456,-1.947,-1.9493,-1.9511,-1.9527,-1.9541,-1.955,-1.9582,-1.954,-1.9615,-1.9621,-1.9635,-1.9645,-1.9652,-1.9664,-1.9583,-1.9583,-1.9583,-1.9506,-1.9507,-1.955,-1.9558,-1.958,-1.9594,-1.9612,-1.9626,-1.9622,-1.964,-1.965,-1.9701,-1.9713,-1.9718,-1.9731,-1.9663,-1.9663,-1.9663,-1.9663,-1.9576,-1.9602,-1.9596,-1.9635,-1.9636,-1.967,-1.9686,-1.9681,-1.9713,-1.9693,-1.9706,-1.9683,-1.9726,-1.9737,-1.9665,-1.9665,-1.9665,-1.9664,-1.9664,-1.962,-1.9632,-1.9642,-1.9675,-1.9701,-1.9708,-1.9738,-1.9739,-1.974,-1.9753,-1.9764,-1.9764,-1.9763,-1.9759,-1.9759,-1.9759,-1.9759,-1.976,-1.976,-1.966,-1.9671,-1.9696,-1.9719,-1.9733,-1.9753,-1.9769,-1.9784,-1.98,-1.9799,-1.9799,-1.9792,-1.973,-1.9714,-1.9762,-1.9762,-1.9761,-1.9761,-1.9761,-1.9729,-1.9714,-1.9753,-1.9767,-1.9794,-1.982,-1.9821,-1.9851,-1.9864,-1.9879,-1.987,-1.9825,-1.9821,-1.9816,-1.9802,-1.987,-1.987,-1.987,-1.987,-1.9765,-1.9763,-1.9803,-1.9826,-1.985,-1.9855,-1.9899,-1.9912,-1.9924,-1.9932,-1.9922,-1.9905,-1.99,-1.9899,-1.9892,-1.9879,-1.9965,-1.9965,-1.9966,-1.9807,-1.9808,-1.9844,-1.9854,-1.9876,-1.9894,-1.9936,-1.9964,-1.9974,-1.9969,-1.9938,-1.9934,-1.9906,-1.9897,-1.989,-1.9879,-1.9856,0,0]},{"header":{"parameterUnit":"m.s-1","parameterCategory":1,"la1":30.2992,"la2":30.254,"lo1":-89.0895,"lo2":-89.0443,"dy":0.0025,"dx":0.0025,"nx":19,"ny":19,"refTime":"2026-03-10T03:00:00:Z","depth":0,"parameterNumber":3,"parameterNumberName":"V-component_of_WINDS"},"data":[0,0,0,2.7906,2.7906,2.7931,2.7932,2.7957,2.7957,0,0,0,0,0,0,0,0,0,0,0,2.7894,2.7894,2.7906,2.7907,2.7931,2.7932,2.7957,2.7957,0,0,0,0,0,0,0,0,0,0,0,2.7894,2.7894,2.7894,2.7907,2.7931,2.7932,2.7957,2.794,0,0,0,0,0,0,0,0,0,0,2.7917,2.7901,2.7894,2.7894,2.7907,2.7931,2.7932,2.794,2.7941,2.7943,0,2.7942,0,2.795,2.7958,2.7958,0,0,0,2.791,2.79,2.7911,2.7894,2.7907,2.7931,2.7921,2.7941,2.7943,2.7945,2.7942,2.7943,2.795,2.7958,2.7958,2.7955,2.7955,0,0,2.7909,2.7896,2.791,2.7912,2.7907,2.792,2.7922,2.7942,2.7938,2.7942,2.7944,2.7951,2.7958,2.7959,2.7955,2.7955,0,0,0,2.7902,2.7895,2.7905,2.7911,2.7916,2.7921,2.7923,2.7938,2.7942,2.7944,2.7951,2.7959,2.7959,2.7955,2.7955,2.7935,0,0,0,2.7902,2.7891,2.7905,2.7897,2.7915,2.7927,2.7918,2.7941,2.7944,2.7951,2.7959,2.7959,2.7955,2.7955,2.7936,2.7927,0,0,0,2.7894,2.789,2.7892,2.7896,2.7907,2.7927,2.7933,2.7942,2.7947,2.7958,2.7959,2.7956,2.7955,2.7936,2.7928,2.7923,0,0,0,2.7882,2.7872,2.7892,2.7884,2.7906,2.7914,2.7933,2.7939,2.7946,2.7959,2.7955,2.7955,2.7937,2.7929,2.7924,2.7917,2.7912,0,0,2.7862,2.7869,2.7866,2.7884,2.7885,2.7911,2.791,2.7928,2.794,2.7949,2.795,2.7935,2.7928,2.7923,2.7892,2.7889,0,0,0,2.7855,2.7853,2.7856,2.7863,2.7877,2.789,2.7909,2.7917,2.7926,2.7942,2.7932,2.7929,2.7926,2.7923,2.792,2.792,2.7953,2.7953,2.7953,2.7808,2.7827,2.7823,2.7845,2.7851,2.7874,2.7881,2.7895,2.7909,2.7907,2.791,2.7889,2.7885,2.7883,2.7882,2.7907,2.7907,2.7907,2.7907,2.7782,2.7782,2.7805,2.7809,2.7829,2.7834,2.7856,2.7867,2.7875,2.7888,2.7887,2.7899,2.7879,2.7879,2.7906,2.7906,2.7906,2.7906,2.7907,2.7753,2.7757,2.7767,2.7781,2.779,2.7813,2.782,2.7837,2.7854,2.7853,2.7859,2.7859,2.7862,2.7855,2.7854,2.7854,2.7854,2.7854,2.7854,2.772,2.7732,2.7736,2.7753,2.7761,2.7775,2.78,2.7808,2.7823,2.7835,2.7835,2.7851,2.7873,2.7878,2.7853,2.7853,2.7854,2.7854,2.7854,2.7686,2.7697,2.7703,2.7711,2.7735,2.7744,2.7768,2.7785,2.7795,2.7798,2.7816,2.7829,2.7837,2.7839,2.7844,2.7811,2.7811,2.7811,2.7811,2.7662,2.7669,2.768,2.7693,2.7708,2.7731,2.7739,2.776,2.7782,2.779,2.7798,2.7806,2.7807,2.7814,2.7817,2.7822,2.7784,2.7784,2.7784,2.7643,2.7653,2.7655,2.7678,2.7699,2.7717,2.7725,2.7741,2.7769,2.7784,2.7797,2.7798,2.7811,2.7814,2.7827,2.7832,2.784,0,0]}]]